Weather History for Palmdale, CA

Change the Weather History Date:

Wednesday, April 13, 2011

  Actual Average Record
Temperature  
Mean Temperature 52 °F 57 °F  
Max Temperature 60 °F 71 °F 92 °F (2002)
Min Temperature 44 °F 43 °F 29 °F (1945)
Degree Days  
Heating Degree Days 13 8  
Month to date heating degree days 133 124  
Since 1 July heating degree days 2800 2745  
Cooling Degree Days 0 0  
Month to date cooling degree days 1 0  
Year to date cooling degree days 2 2  
Growing Degree Days 1 (Base 50)    
Moisture  
Dew Point 36 °F    
Average Humidity 58    
Maximum Humidity 77    
Minimum Humidity 38    
Precipitation  
Precipitation 0.00 in 0.01 in 0.54 in (2012)
Month to date precipitation T 0.21  
Year to date precipitation 2.33 4.72  
Since 1 July precipitation 7.71 7.70  
Snow  
Snow 0.00 in - 0.00 in (1973)
Month to date snowfall 0.0  
Since 1 July snowfall 0.0  
Snow Depth 0.00 in    
Sea Level Pressure  
Sea Level Pressure 30.07 in    
Wind  
Wind Speed 18 mph (West)    
Max Wind Speed 40 mph    
Max Gust Speed 47 mph    
Visibility 10 miles    
Events      
T = Trace of Precipitation, MM = Missing Value Source: NWS Daily Summary

Daily Weather History Graph

Daily Weather History Graph

Search for Another Location

Airport:

Trip Planner

Search our weather history database for the weather conditions in past years. The results will help you decide how hot, cold, wet, or windy it might be!

Date:

Astronomy

Apr. 13, 2011 Rise Set
Actual Time 6:23 AM PDT 7:22 PM PDT
Civil Twilight 5:57 AM PDT 7:48 PM PDT
Nautical Twilight 5:27 AM PDT 8:19 PM PDT
Astronomical Twilight 4:55 AM PDT 8:50 PM PDT
Moon 2:42 PM PDT (4/13) 3:14 AM PDT (4/13)
Length of Visible Light 13h 50m
Length of Day
12h 59m
Waxing Gibbous, 75% of the Moon is Illuminated
Apr 13
Waxing Gibbous
Apr 17
Full
Apr 24
Last Quarter
May 2
New
May 10
First Quarter

Hourly Weather History & Observations

Time (PDT) Temp. Windchill Dew Point Humidity Pressure Visibility Wind Dir Wind Speed Gust Speed Precip Events Conditions
12:53 AM 53.1 °F - 37.9 °F 57% 29.96 in 10.0 mi SW 15.0 mph - N/A   Clear
1:04 AM 53.6 °F - 39.2 °F 58% 30.00 in 10.0 mi WSW 16.1 mph - N/A   Clear
1:53 AM 51.1 °F - 39.9 °F 66% 29.96 in 10.0 mi West 12.7 mph - N/A   Clear
2:53 AM 48.9 °F - 41.0 °F 74% 29.97 in 10.0 mi West 9.2 mph - N/A   Clear
3:53 AM 48.9 °F - 37.9 °F 66% 29.98 in 10.0 mi West 9.2 mph - N/A   Clear
4:53 AM 48.0 °F - 39.0 °F 71% 29.98 in 10.0 mi Variable 6.9 mph - N/A   Clear
5:53 AM 46.0 °F 40.6 °F 39.0 °F 76% 29.98 in 10.0 mi West 11.5 mph - N/A   Clear
6:53 AM 46.9 °F - 39.0 °F 74% 30.01 in 10.0 mi West 19.6 mph - N/A   Clear
7:53 AM 50.0 °F - 37.9 °F 63% 30.01 in 10.0 mi SSW 17.3 mph - N/A   Clear
8:53 AM 52.0 °F - 37.9 °F 59% 30.03 in 10.0 mi WSW 24.2 mph 27.6 mph N/A   Clear
9:53 AM 54.0 °F - 39.0 °F 57% 30.06 in 10.0 mi WSW 19.6 mph 27.6 mph N/A   Partly Cloudy
10:53 AM 54.0 °F - 37.9 °F 55% 30.08 in 10.0 mi West 18.4 mph 28.8 mph N/A   Overcast
11:09 AM 51.8 °F - 37.4 °F 58% 30.11 in 10.0 mi West 20.7 mph - N/A   Overcast
11:53 AM 57.0 °F - 37.9 °F 49% 30.08 in 10.0 mi West 15.0 mph 24.2 mph N/A   Partly Cloudy
12:53 PM 57.9 °F - 37.9 °F 47% 30.06 in 10.0 mi West 21.9 mph 27.6 mph N/A   Mostly Cloudy
1:53 PM 57.9 °F - 37.0 °F 46% 30.08 in 10.0 mi WNW 24.2 mph 29.9 mph N/A   Mostly Cloudy
2:53 PM 57.0 °F - 34.0 °F 42% 30.08 in 10.0 mi WNW 28.8 mph 35.7 mph N/A   Clear
3:53 PM 54.0 °F - 30.0 °F 40% 30.09 in 10.0 mi WNW 32.2 mph 41.4 mph N/A   Clear
4:53 PM 53.1 °F - 28.0 °F 38% 30.09 in 10.0 mi WNW 33.4 mph 43.7 mph N/A   Clear
5:53 PM 52.0 °F - 30.0 °F 43% 30.13 in 10.0 mi WNW 27.6 mph 34.5 mph N/A   Clear
6:53 PM 50.0 °F - 30.9 °F 48% 30.15 in 10.0 mi WNW 23.0 mph 26.5 mph N/A   Clear
7:53 PM 48.2 °F - 32.0 °F 54% 30.18 in 10.0 mi WNW 17.3 mph - N/A   Clear
8:53 PM 46.9 °F - 33.1 °F 59% 30.19 in 10.0 mi WNW 16.1 mph - N/A   Clear
9:53 PM 46.9 °F - 32.0 °F 56% 30.22 in 10.0 mi West 9.2 mph - N/A   Clear
10:53 PM 45.0 °F 38.2 °F 32.0 °F 60% 30.20 in 10.0 mi West 15.0 mph 25.3 mph N/A   Clear
11:53 PM 46.0 °F 41.0 °F 30.9 °F 56% 30.21 in 10.0 mi West 10.4 mph - N/A   Clear